Back to catalog

STARLINK-34739

AliveCommunicationsSSO
NORAD 65066·PAYLOAD·🇺🇸 United States

Launched Jul 31, 2025 from Vandenberg Space Force Base

Loading…

Next Passes (next 24 hours)

TLE

FreshSource: CelesTrak SupGP

Epoch: Sep 14, 2026, 21:25 UTC

1 65066C 25165L   26257.89284722 -.00042606  00000+0 -25906-2 0  2576
2 65066  97.2850 329.2054 0001622  89.0027  22.3551 15.10566246    13

Track STARLINK-34739 in real time with AllMySat

Download on the App Store